Home   Weather   Norwalk   Past weeks

Flag for USA Past Weather in Norwalk, California, USA — Yesterday and Last 2 Weeks

Now
79 °F

Sunny.


Feels Like: 79 °F
Forecast: 61 / 83 °F
Wind: 8 mph from Southwest

Location: Fullerton Municipal Airport

Current Time: Apr 27, 2017 at 5:42:23 pm

Latest Report: Apr 27, 2017 at 4:53 pm


Visibility: 10 mi

Pressure: 29.70 "Hg

Humidity: 35%

Dew Point: 49 °F

Location of NorwalkLocation

Past Weather in Norwalk — Graph

°F

Norwalk Temperature Yesterday

Maximum temperature yesterday: 76 °F (at 12:53 pm)
Minimum temperature yesterday: 59 °F (at 5:53 am)
Average temperature yesterday: 67 °F

High & Low Weather Summary for the Past Weeks

 TemperatureHumidityPressure
High91 °F (Apr 21, 3:53 pm)93% (Apr 18, 9:34 pm)30.12 "Hg (Apr 18, 9:34 pm)
Low50 °F (Apr 15, 5:53 am)19% (Apr 21, 4:53 pm)29.71 "Hg (Apr 27, 3:53 pm)
Average67 °F62%29.94 "Hg
* Reported Apr 12 3:53 pm — Apr 27 3:53 pm, Norwalk, Weather by CustomWeather, © 2017

Note: Actual official high and low records may vary slightly from our data, if they occured in-between our weather recording intervals... More about our weather records

Advertising

Norwalk Weather History for the Previous 24 Hours

Scroll right to see more
 ConditionsComfort  
Time TempWeatherWind HumidityBarometerVisibility
3:53 pm
Thu, Apr 27
75 °FSunny.9 mph48%29.71 "Hg10 mi
2:53 pm75 °FSunny.7 mph48%29.73 "Hg10 mi
1:53 pm73 °FSunny.9 mph53%29.75 "Hg10 mi
12:53 pm74 °FSunny.9 mph56%29.77 "Hg10 mi
11:53 am72 °FSunny.6 mph57%29.79 "Hg10 mi
10:53 am70 °FScattered clouds.5 mph61%29.80 "Hg10 mi
10:00 am68 °FPartly sunny.5 mph68%29.82 "Hg10 mi
8:53 am66 °FPartly sunny.5 mph73%29.81 "Hg10 mi
8:42 am64 °FPartly sunny.6 mph78%29.81 "Hg10 mi
7:53 am62 °FOvercast.5 mph80%29.81 "Hg9 mi
6:53 am61 °FPartly sunny.5 mph87%29.80 "Hg8 mi
6:36 am61 °FMore clouds than sun.3 mph87%29.81 "Hg8 mi
5:53 am61 °FLow clouds.3 mph87%29.79 "Hg9 mi
5:25 am61 °FMostly cloudy.7 mph87%29.80 "Hg10 mi
4:53 am62 °FOvercast.7 mph80%29.80 "Hg10 mi
3:53 am60 °FPassing clouds.3 mph86%29.80 "Hg10 mi
2:53 am62 °FOvercast.6 mph83%29.80 "Hg10 mi
1:53 am64 °FOvercast.6 mph84%29.82 "Hg10 mi
12:53 am63 °FOvercast.3 mph84%29.82 "Hg10 mi
12:20 am63 °FPassing clouds.6 mph84%29.84 "Hg10 mi
11:53 pm
Wed, Apr 26
62 °FClear.6 mph83%29.84 "Hg10 mi
10:53 pm63 °FClear.8 mph81%29.84 "Hg10 mi
9:53 pm64 °FClear.7 mph81%29.83 "Hg10 mi
8:53 pm64 °FClear.6 mph78%29.83 "Hg10 mi
7:53 pm66 °FClear.6 mph73%29.81 "Hg10 mi
6:53 pm68 °FSunny.7 mph65%29.82 "Hg10 mi
5:53 pm71 °FSunny.8 mph59%29.82 "Hg10 mi
Weather by CustomWeather, © 2017

See weather overviewHow to use our weather pages